When you browse on this site, cookies collect data to enhance your experience and personalize the content and advertising you see.
Visit our Privacy Policy to learn more. By continuing to use the site, you agree to this use of cookies and data.
  • In Belgium
  • List of Countries
  • For 7 days
  • Water Temperature
  • Satellite Maps
  • Weather Map
  • Weather Widgets
  • user-avatar
    Login

    Hourly Weather Siemierz

    Today, 18 November, Sunday

    Time Temperature Precipitation Wind Pressure Humidity
    00:00 -3°C° 0 mm 2 mps 756 mmHg 52%
    01:00 -1°C° 0 mm 1 mps 755 mmHg 52%
    02:00 -1°C° 0 mm 1 mps 755 mmHg 51%
    03:00 -1°C° 0 mm 1 mps 754 mmHg 51%
    04:00 -2°C° 0 mm 0 mps 754 mmHg 50%
    05:00 -2°C° 0 mm 0 mps 753 mmHg 50%
    06:00 -1°C° 0 mm 1 mps 752 mmHg 50%
    07:00 -1°C° 0 mm 1 mps 752 mmHg 50%
    08:00 -3°C° 0 mm 2 mps 752 mmHg 48%
    09:00 0°C° 0 mm 1 mps 751 mmHg 43%
    10:00 +1°C° 0 mm 1 mps 751 mmHg 38%
    11:00 +2°C° 0 mm 1 mps 750 mmHg 34%
    12:00 +3°C° 0 mm 1 mps 750 mmHg 33%
    13:00 +3°C° 0 mm 1 mps 749 mmHg 33%
    14:00 +3°C° 0 mm 1 mps 749 mmHg 33%
    15:00 +2°C° 0.1 mm 1 mps 748 mmHg 41%
    16:00 +2°C° 0.1 mm 1 mps 748 mmHg 49%
    17:00 +1°C° 0.1 mm 1 mps 747 mmHg 57%
    18:00 0°C° 0.2 mm 1 mps 747 mmHg 64%
    19:00 0°C° 0.2 mm 1 mps 747 mmHg 71%
    20:00 0°C° 0.2 mm 1 mps 747 mmHg 77%
    21:00 0°C° 0 mm 1 mps 746 mmHg 81%
    22:00 0°C° 0 mm 1 mps 746 mmHg 84%
    23:00 0°C° 0 mm 1 mps 746 mmHg 87%

    Tomorrow, 19 November, Monday

    Time Temperature Precipitation Wind Pressure Humidity
    00:00 0°C° 0 mm 1 mps 746 mmHg 88%
    01:00 -2°C° 0 mm 2 mps 746 mmHg 88%
    02:00 -2°C° 0 mm 2 mps 746 mmHg 88%
    03:00 -2°C° 0 mm 2 mps 746 mmHg 87%
    04:00 -2°C° 0 mm 2 mps 746 mmHg 86%
    05:00 -4°C° 0 mm 3 mps 745 mmHg 85%
    06:00 -4°C° 0 mm 3 mps 746 mmHg 83%
    07:00 -4°C° 0 mm 3 mps 746 mmHg 81%
    08:00 -4°C° 0 mm 3 mps 746 mmHg 79%
    09:00 -3°C° 0 mm 4 mps 746 mmHg 72%
    10:00 -2°C° 0 mm 4 mps 746 mmHg 65%
    11:00 -1°C° 0 mm 5 mps 746 mmHg 58%
    12:00 -1°C° 0 mm 5 mps 746 mmHg 58%
    13:00 -1°C° 0 mm 5 mps 746 mmHg 57%
    14:00 0°C° 0 mm 5 mps 746 mmHg 57%
    15:00 -1°C° 0 mm 4 mps 746 mmHg 59%
    16:00 -2°C° 0 mm 4 mps 746 mmHg 61%
    17:00 -2°C° 0 mm 4 mps 746 mmHg 63%
    18:00 -3°C° 0 mm 4 mps 747 mmHg 64%
    19:00 -3°C° 0 mm 4 mps 747 mmHg 65%
    20:00 -3°C° 0 mm 4 mps 747 mmHg 66%
    21:00 -3°C° 0 mm 4 mps 747 mmHg 69%
    22:00 -4°C° 0 mm 4 mps 748 mmHg 71%
    23:00 -4°C° 0 mm 4 mps 748 mmHg 74%

    Day after tomorrow, 20 November, Tuesday

    Time Temperature Precipitation Wind Pressure Humidity
    00:00 -4°C° 0 mm 4 mps 748 mmHg 75%
    01:00 -4°C° 0 mm 4 mps 748 mmHg 75%
    02:00 -5°C° 0 mm 4 mps 748 mmHg 76%
    03:00 -5°C° 0 mm 4 mps 748 mmHg 76%
    04:00 -5°C° 0 mm 4 mps 748 mmHg 76%
    05:00 -5°C° 0 mm 4 mps 748 mmHg 75%
    06:00 -5°C° 0 mm 4 mps 748 mmHg 75%
    07:00 -5°C° 0 mm 4 mps 748 mmHg 75%
    08:00 -5°C° 0 mm 4 mps 748 mmHg 75%
    09:00 -5°C° 0 mm 5 mps 748 mmHg 72%
    10:00 -4°C° 0 mm 5 mps 748 mmHg 68%
    11:00 -2°C° 0 mm 5 mps 748 mmHg 64%
    12:00 -2°C° 0 mm 6 mps 748 mmHg 63%
    13:00 -2°C° 0 mm 6 mps 747 mmHg 62%
    14:00 -1°C° 0 mm 6 mps 746 mmHg 61%
    15:00 -2°C° 0 mm 6 mps 746 mmHg 64%
    16:00 -2°C° 0 mm 6 mps 746 mmHg 67%
    17:00 -3°C° 0 mm 6 mps 745 mmHg 70%
    18:00 -3°C° 0 mm 6 mps 745 mmHg 71%
    19:00 -3°C° 0 mm 6 mps 745 mmHg 73%
    20:00 -3°C° 0 mm 6 mps 745 mmHg 75%
    21:00 -4°C° 0 mm 6 mps 745 mmHg 76%
    22:00 -4°C° 0 mm 6 mps 745 mmHg 78%
    23:00 -4°C° 0 mm 6 mps 745 mmHg 80%

    21 November, Wednesday

    Time Temperature Precipitation Wind Pressure Humidity
    00:00 -4°C° 0 mm 6 mps 745 mmHg 81%
    01:00 -3°C° 0 mm 6 mps 746 mmHg 81%
    02:00 -3°C° 0 mm 6 mps 746 mmHg 82%
    03:00 -3°C° 0.2 mm 6 mps 746 mmHg 83%
    04:00 -3°C° 0.2 mm 6 mps 745 mmHg 84%
    05:00 -3°C° 0.2 mm 6 mps 745 mmHg 85%
    06:00 -3°C° 0.2 mm 6 mps 746 mmHg 86%
    07:00 -4°C° 0.2 mm 6 mps 746 mmHg 86%
    08:00 -4°C° 0.2 mm 6 mps 746 mmHg 87%
    09:00 -4°C° 0.1 mm 6 mps 746 mmHg 85%
    10:00 -3°C° 0.1 mm 6 mps 747 mmHg 84%
    11:00 -3°C° 0.1 mm 6 mps 747 mmHg 83%
    12:00 -2°C° 0 mm 5 mps 747 mmHg 82%
    13:00 -1°C° 0 mm 5 mps 747 mmHg 81%
    14:00 -1°C° 0 mm 5 mps 747 mmHg 80%
    15:00 -1°C° 0 mm 5 mps 747 mmHg 82%
    16:00 -2°C° 0 mm 5 mps 747 mmHg 83%
    17:00 -2°C° 0 mm 5 mps 747 mmHg 84%
    18:00 -4°C° 0 mm 5 mps 747 mmHg 85%
    19:00 -4°C° 0 mm 5 mps 748 mmHg 85%
    20:00 -4°C° 0 mm 5 mps 748 mmHg 86%
    21:00 -5°C° 0 mm 5 mps 748 mmHg 86%
    22:00 -4°C° 0 mm 4 mps 748 mmHg 87%
    23:00 -4°C° 0 mm 4 mps 749 mmHg 87%

    22 November, Thursday

    Time Temperature Precipitation Wind Pressure Humidity
    00:00 -4°C° 0 mm 4 mps 749 mmHg 87%
    01:00 -4°C° 0 mm 4 mps 749 mmHg 88%
    02:00 -4°C° 0 mm 4 mps 749 mmHg 88%
    03:00 -4°C° 0 mm 4 mps 749 mmHg 89%
    04:00 -4°C° 0 mm 4 mps 749 mmHg 89%
    05:00 -4°C° 0 mm 4 mps 749 mmHg 89%
    06:00 -4°C° 0 mm 4 mps 749 mmHg 89%
    07:00 -4°C° 0 mm 4 mps 749 mmHg 89%
    08:00 -4°C° 0 mm 4 mps 749 mmHg 90%
    09:00 -4°C° 0 mm 4 mps 750 mmHg 86%
    10:00 -3°C° 0 mm 4 mps 750 mmHg 83%
    11:00 -2°C° 0 mm 4 mps 750 mmHg 80%
    12:00 -2°C° 0 mm 4 mps 750 mmHg 77%
    13:00 -1°C° 0 mm 4 mps 750 mmHg 75%
    14:00 -1°C° 0 mm 4 mps 750 mmHg 72%
    15:00 -2°C° 0 mm 4 mps 750 mmHg 75%
    16:00 -3°C° 0 mm 4 mps 751 mmHg 78%
    17:00 -2°C° 0 mm 3 mps 751 mmHg 81%
    18:00 -4°C° 0 mm 3 mps 751 mmHg 81%
    19:00 -4°C° 0 mm 4 mps 751 mmHg 82%
    20:00 -4°C° 0 mm 4 mps 752 mmHg 82%
    21:00 -4°C° 0 mm 3 mps 752 mmHg 83%
    22:00 -5°C° 0 mm 3 mps 752 mmHg 83%
    23:00 -5°C° 0 mm 3 mps 752 mmHg 83%

    23 November, Friday

    Time Temperature Precipitation Wind Pressure Humidity
    00:00 -5°C° 0 mm 3 mps 752 mmHg 83%
    01:00 -5°C° 0 mm 3 mps 752 mmHg 83%
    02:00 -5°C° 0 mm 3 mps 752 mmHg 83%
    03:00 -5°C° 0 mm 3 mps 752 mmHg 84%
    04:00 -5°C° 0 mm 3 mps 752 mmHg 84%
    05:00 -5°C° 0 mm 3 mps 752 mmHg 84%
    06:00 -5°C° 0 mm 3 mps 752 mmHg 85%
    07:00 -5°C° 0 mm 3 mps 752 mmHg 85%
    08:00 -5°C° 0 mm 3 mps 753 mmHg 85%
    09:00 -4°C° 0 mm 3 mps 753 mmHg 80%
    10:00 -2°C° 0 mm 3 mps 753 mmHg 75%
    11:00 -2°C° 0 mm 4 mps 753 mmHg 69%
    12:00 -1°C° 0 mm 4 mps 753 mmHg 67%
    13:00 +1°C° 0 mm 3 mps 752 mmHg 65%
    14:00 +1°C° 0 mm 3 mps 752 mmHg 63%
    15:00 0°C° 0 mm 3 mps 752 mmHg 67%
    16:00 -1°C° 0 mm 3 mps 752 mmHg 72%
    17:00 -2°C° 0 mm 3 mps 751 mmHg 77%
    18:00 -2°C° 0 mm 3 mps 751 mmHg 78%
    19:00 -2°C° 0 mm 3 mps 751 mmHg 80%
    20:00 -4°C° 0 mm 3 mps 750 mmHg 81%
    21:00 -2°C° 0 mm 3 mps 750 mmHg 83%
    22:00 -2°C° 0 mm 3 mps 750 mmHg 84%
    23:00 -2°C° 0 mm 3 mps 750 mmHg 86%
    Show more